Regional Weather Roundup
Issued by NWS Midland/Odessa, TX

Skip options and go directly to product.
Home | Oldest Version | Previous Version | Current Version | All | Graphics & Text | Save Text | Print | Product List | Glossary On

Skip product version selection by date and time.   
403
ASUS44 KMAF 281201
RWRMAF
MIDLAND AREA WEATHER ROUNDUP
NATIONAL WEATHER SERVICE MIDLAND TX
700 AM CDT TUE APR 28 2015

...IN SOUTHWEST TEXAS AND SOUTHEAST NEW MEXICO...

CITY           SKY/WX    TMP DP  RH WIND       PRES   REMARKS
ALPINE         CLOUDY    42  32  69 N16G26    30.25R WCI  33
ANDREWS        CLOUDY    45  38  77 N15G22    30.18R WCI  38
ARTESIA        PTCLDY    39  36  87 NW8       30.27R WCI  34
BIG SPRING     CLOUDY    48  42  79 N17       30.13R
CARLSBAD       MOCLDY    47  34  60 NW17      30.24R
DRYDEN           N/A     52  37  56 NW10      30.13R
FORT STOCKTON  CLOUDY    47  37  68 NW22      30.20R WCI  39
GUAD PASS      NOT AVBL
HOBBS          CLOUDY    43  37  81 N15G25    30.21R WCI  35
MARFA          CLOUDY    39  30  70 N15G22    30.21R WCI  31
MIDLAND AIRPK  CLOUDY    46  42  84 N13       30.15R FOG
MIDLAND INTL   CLOUDY    46  41  82 N20G25    30.15R WCI  38
ODESSA         CLOUDY    47  38  71 N17G25    30.16R
PECOS          CLOUDY    49  36  60 N15       30.22R
PRESIDIO       FAIR      50  32  50 N12       30.19R
SEMINOLE       CLOUDY    44  37  76 N16G23    30.18R WCI  37
SNYDER         DRIZZLE   46  44  94 N20G25    30.10R WCI  38
WINK           CLOUDY    49  36  61 N13       30.19R
$$
...OTHER STATIONS IN TEXAS...

CITY           SKY/WX    TMP DP  RH WIND       PRES   REMARKS
ABILENE        LGT RAIN  49  49 100 N18       30.06R
AMARILLO       MOCLDY    41  37  86 N13       30.21R WCI  34
AUSTIN         CLOUDY    62  54  74 NW9G17    29.91R
BROWNSVILLE    CLOUDY    73  70  90 N10       29.84R
CORPUS CHRISTI RAIN      68  62  81 N18       29.88R
DALLAS FTW     CLOUDY    54  48  80 N16       29.98R
DEL RIO        MOCLDY    55  39  54 W17       30.07R
EL PASO        PTCLDY    46  30  53 CALM      30.23R
HOUSTON INT    MOCLDY    63  61  93 NW5       29.85R
LUBBOCK        CLOUDY    44  41  89 N16G25    30.17R WCI  37
SAN ANGELO     CLOUDY    51  44  77 NW22      30.05R
SAN ANTONIO    CLEAR     57  45  64 NW10      29.95R
WACO           CLOUDY    53  52  96 N14       29.94R FOG
WICHITA FALLS  NOT AVBL
$$
...OTHER LOCATIONS IN NEW MEXICO...

CITY           SKY/WX    TMP DP  RH WIND       PRES   REMARKS
ALAMAGORDO     PTCLDY    41  28  60 SE3       30.23R
ALBUQUERQUE    PTCLDY    43  35  73 E3        30.30R
CANNON AFB     PTCLDY    38  35  88 N10       30.23R WCI  31
CLOVIS         PTCLDY    39  34  81 N18       30.22R WCI  30
HOLLOMAN AFB   PTCLDY    42  32  67 N6        30.23R WCI  38
ROSWELL        MOCLDY    42  36  79 NW6       30.25R WCI  38
RUIDOSO        CLEAR     32  27  80 W6        30.30R WCI  26
SANTA FE       CLEAR     33  29  85 CALM      30.30R
TRUTH OR CONSE PTCLDY    42  34  73 NE6       30.27R WCI  38
TUCUMCARI      CLEAR     41  34  76 N10       30.25R WCI  35
$$

USA.gov is the U.S. government's official web portal to all federal, state and local government web resources and services.